Grey Islet, British Columbia

3:37 AM PDT on April 26, 2017 (GMT -0700)
Grey Islet

Weather History for CWEK - November, 2012

Change the Weather History Date:

Saturday, November 10, 2012

  Actual Average Record
Temperature  
Mean Temperature 37 °F -  
Max Temperature 40 °F - - ()
Min Temperature 35 °F - - ()
Degree Days  
Heating Degree Days 28    
Moisture  
Dew Point 29 °F    
Average Humidity 69    
Maximum Humidity 73    
Minimum Humidity 56    
Precipitation  
Precipitation 0.00 in - - ()
Sea Level Pressure  
Sea Level Pressure 29.99 in    
Wind  
Wind Speed 24 mph ()    
Max Wind Speed 31 mph    
Max Gust Speed 32 mph    
T = Trace of Precipitation, MM = Missing Value Source: Averaged Metar Reports

Daily Weather History Graph

Daily Weather History Graph

Search for Another Location

Airport or City:

Trip Planner

Search our weather history database for the weather conditions in past years. The results will help you decide how hot, cold, wet, or windy it might be!

Date:

Astronomy

Nov. 10, 2012 Rise Set
Actual Time 8:04 AM PST 4:48 PM PST
Civil Twilight 7:24 AM PST 5:27 PM PST
Nautical Twilight 6:41 AM PST 6:11 PM PST
Astronomical Twilight 5:59 AM PST 6:53 PM PST
Moon 3:46 AM PST (11/10) 3:05 PM PST (11/10)
Length of Visible Light 10h 03m
Length of Day
8h 43m
Waning Crescent, 13% of the Moon is Illuminated
Nov 10
Waning Crescent
Nov 13
New
Nov 20
First Quarter
Nov 28
Full
Dec 6
Last Quarter

Hourly Weather History & Observations

Time (PST) Temp. Windchill Dew Point Humidity Pressure Visibility Wind Dir Wind Speed Gust Speed Precip Events Conditions
12:00 AM 38.3 °F 26.2 °F 29.1 °F 70% 30.07 in - ENE 29.9 mph - N/A   Unknown
1:00 AM 37.9 °F 25.7 °F 28.9 °F 70% 30.07 in - ENE 29.9 mph - N/A   Unknown
2:00 AM 37.2 °F 24.5 °F 28.4 °F 70% 30.06 in - ENE 31.1 mph - N/A   Unknown
3:00 AM 37.0 °F 24.3 °F 28.2 °F 70% 30.06 in - ENE 31.1 mph - N/A   Unknown
4:00 AM 37 °F - 28 °F 60% 30.05 in - ENE 28.8 mph - -  
4:00 AM 37.2 °F 24.9 °F 28.0 °F 69% 30.05 in - ENE 28.8 mph - N/A   Unknown
5:00 AM 36.9 °F 24.4 °F 28.8 °F 72% 30.05 in - ENE 28.8 mph - N/A   Unknown
6:00 AM 36.7 °F 24.4 °F 27.9 °F 70% 30.04 in - ENE 27.6 mph - N/A   Unknown
7:00 AM 36.5 °F 24.4 °F 28.6 °F 73% 30.02 in - ENE 26.5 mph - N/A   Unknown
8:00 AM 36.5 °F 25.2 °F 28.6 °F 73% 30.02 in - ENE 23.0 mph - N/A   Unknown
9:00 AM 36.5 °F 24.9 °F 28.2 °F 72% 30.04 in - ENE 24.2 mph 29.9 mph N/A   Unknown
10:00 AM 37 °F - 28 °F 60% 30.03 in - ENE 23.0 mph - -  
10:00 AM 36.7 °F 25.4 °F 28.2 °F 71% 30.03 in - ENE 23.0 mph - N/A   Unknown
11:00 AM 37.2 °F 26.1 °F 28.9 °F 72% 30.03 in - ENE 23.0 mph - N/A   Unknown
12:00 PM 37.4 °F 25.9 °F 29.1 °F 72% 30.01 in - ENE 25.3 mph - N/A   Unknown
1:00 PM 37.9 °F 27.9 °F 27.1 °F 65% 30.00 in - ENE 19.6 mph - N/A   Unknown
2:00 PM 38.1 °F 27.6 °F 28.6 °F 69% 29.99 in - ENE 21.9 mph - N/A   Unknown
3:00 PM 37.8 °F 26.6 °F 28.8 °F 70% 29.98 in - ENE 24.2 mph - N/A   Unknown
4:00 PM 38 °F - 28 °F 56% 29.96 in - ENE 24.2 mph - -  
4:00 PM 37.8 °F 26.6 °F 27.9 °F 67% 29.96 in - ENE 24.2 mph 31.1 mph N/A   Unknown
5:00 PM 38.1 °F 26.8 °F 28.8 °F 69% 29.95 in - ENE 25.3 mph - N/A   Unknown
6:00 PM 38.7 °F 27.8 °F 28.8 °F 68% 29.94 in - ENE 24.2 mph - N/A   Unknown
7:00 PM 38.5 °F 27.8 °F 29.5 °F 70% 29.93 in - ENE 23.0 mph - N/A   Unknown
8:00 PM 38.1 °F 26.8 °F 28.6 °F 69% 29.93 in - ENE 25.3 mph 32.2 mph N/A   Unknown
9:00 PM 38.1 °F 26.4 °F 29.8 °F 72% 29.91 in - ENE 27.6 mph - N/A   Unknown
10:00 PM 39 °F - 31 °F 63% 29.89 in - ENE 27.6 mph - -  
10:00 PM 39.2 °F 27.8 °F 30.9 °F 72% 29.89 in - ENE 27.6 mph - N/A   Unknown
11:00 PM 40.1 °F 29.5 °F 31.6 °F 72% 29.88 in - ENE 25.3 mph - N/A   Unknown